AMC-15                  
1 28446U 04041A   19266.56187391 -.00000099  00000-0  00000+0 0  9995
2 28446   0.0151 133.8636 0002868  73.8048 251.6781  1.00269932 54716
BREEZE-M R/B            
1 28447U 04041B   19266.53291159 -.00000063  00000-0  00000-0 0  9993
2 28447  17.0602 127.1194 5174240 359.1552 172.1891  1.86974402102037
BREEZE-M DEB [TANK]     
1 28477U 04041C   19266.61616603  .00000061  00000-0  00000-0 0  9997
2 28477  47.9053 276.2256 6714580 350.3720   1.4583  2.23818700121993